LJLJLJPZ

Guest
Details From LJLJ - LJUBLJANA
To LJPZ - PORTOROZ
Flight Number -
Tags generated
Created
Modified
Stats Distance 57 nm / 106 km
Max Altitude 0 ft / 0 m
Waypoints 3
Social Downloads 0
Likes 0
Share VATSIM

Download

Looking for another format? Having issues loading an existing format? Contact us
Advertisement - Login to hide

Notes

Basic altitude profile: - Ascent Rate: 2500ft/min - Ascent Speed: 250kts - Cruise Altitude: 15000ft - Cruise Speed: 420kts - Descent Rate: 1500ft/min - Descent Speed: 250kts Options: - Use NATs: yes - Use PACOTS: yes - Use low airways: yes - Use high airways: yes

Route

LJLJ PZ LJPZ

ID Type Via Altitude Latitude Longitude Leg Dist Tot Dist Heading (true) Name
O LJLJ APT - 0 ft / 0 m 46.22368˚ 14.45761˚ - 0 nm - LJUBLJANA
PZ NDB - 0 ft / 0 m 45.47747˚ 13.61492˚ 57 nm 57 nm 218° / 218° PORTOROZ NDB
O LJPZ APT - 0 ft / 0 m 45.47244˚ 13.61568˚ 0 nm 57 nm 174° / 174° PORTOROZ

Altitude Profile

Advertisement - Login to hide

LJLJ

Details ICAO LJLJ (LJU)
Name LJUBLJANA
Region Slovenia
Timezone Europe/Ljubljana (UTC+2.0)
Stats Elevation 1,273 ft / 388 m (AMSL)
Location 46.223685° 14.457608°
Runways 1
Magnetic Variation 3.722° E

METAR

LJLJ 241430Z 07007KT 9999 FEW040TCU SCT055 20/10 Q1017 NOSIG

Decode

TAF

TAF LJLJ 241400Z 2415/2515 10005KT 9999 FEW050 SCT100 TEMPO 2415/2424 SHRA SCT040TCU BKN070 BECMG 2416/2419 VRB02KT BKN050 BECMG 2500/2503 32005KT 7000 RA SCT007 BKN020 OVC035 BECMG 2509/2512 12005KT NSW BKN050 TEMPO 2512/2515 SHRA SCT040TCU

Decode

Departure Runways

ID Width Length Bearing (true) Bearing (mag) Surface Threshold Offset Overrun Length
13 148 ft / 45 m 10,811 ft / 3,295 m 126.47° 122.75° Asphalt 0 ft / 0 m 0 ft / 0 m
31 148 ft / 45 m 10,811 ft / 3,295 m 306.49° 302.77° Asphalt 0 ft / 0 m 0 ft / 0 m

LJPZ

Details ICAO LJPZ (POW)
Name PORTOROZ
Region Slovenia
Timezone Europe/Ljubljana (UTC+2.0)
Stats Elevation 7 ft / 2 m (AMSL)
Location 45.472445° 13.615681°
Runways 1
Magnetic Variation 3.503° E

METAR

LJPZ 241430Z 28005KT 240V330 9999 FEW050TCU BKN250 24/12 Q1017

Decode

TAF

Not found

Destination Runways

ID Width Length Bearing (true) Bearing (mag) Surface Threshold Offset Overrun Length
15 98 ft / 30 m 3,939 ft / 1,201 m 151.28° 147.78° Asphalt 0 ft / 0 m 0 ft / 0 m
33 98 ft / 30 m 3,939 ft / 1,201 m 331.29° 327.79° Asphalt 751 ft / 229 m 0 ft / 0 m

Popular Alternatives